GW2260 Weather Reports


Display with metric or nautical units.
time (UTC)temp
F
wind
direction
speed
MPH
gust
MPH
rain 1hr
in
rain 24hr
in
rain mn
in
humidity
%
barometer
mb
20260506061619 61 103 2.0 4.0 0.00 0.00 0.00 86 1018.9
20260506061547 60 115 1.0 4.0 0.00 0.00 0.00 86 1018.7
20260506060618 62 110 1.0 2.0 0.00 0.00 0.00 88 1018.8
20260506050618 64 0.0 0.0 0.00 0.00 0.00 96 1018.3
20260506044618 65 247 0.0 1.0 0.00 0.00 0.00 95 1018.1
20260506044543 64 251 0.0 3.0 0.00 0.00 0.00 94 1018.1
20260506043618 65 216 0.0 3.0 0.00 0.00 0.00 94 1018.1
20260506043045 65 151 1.0 4.0 0.00 0.00 0.00 93 1018.0
20260506042618 66 285 0.0 1.0 0.00 0.00 0.00 93 1018.0
20260506041618 66 281 1.0 1.0 0.00 0.00 0.00 92 1017.9
20260506041557 66 0 0.0 3.0 0.00 0.00 0.00 92 1017.9
20260506040618 67 258 1.0 3.0 0.00 0.00 0.00 91 1017.7
20260506040044 67 298 1.0 4.0 0.00 0.00 0.00 91 1017.6
20260506035618 67 197 1.0 4.0 0.00 0.00 0.00 92 1017.6
20260506034640 67 296 0.0 1.0 0.00 0.00 0.00 92 1017.6
20260506034550 67 0 1.0 4.0 0.00 0.00 0.00 91 1017.6
20260506033617 67 281 2.0 2.0 0.00 0.00 0.00 92 1017.6
20260506033039 67 0 0.0 4.0 0.00 0.00 0.00 91 1017.4
20260506032618 67 286 0.0 2.0 0.00 0.00 0.00 91 1017.5
20260506031639 68 308 1.0 1.0 0.00 0.00 0.00 89 1017.6
20260506031544 67 0 0.0 2.0 0.00 0.00 0.00 89 1017.5
20260506030618 68 258 0.0 1.0 0.00 0.00 0.00 88 1017.6
20260506030043 68 256 1.0 4.0 0.00 0.00 0.00 88 1017.6
20260506025701 69 249 1.0 2.0 0.00 0.00 0.00 87 1017.6
20260506024618 69 221 2.0 4.0 0.00 0.00 0.00 87 1017.5
20260506024541 69 171 2.0 5.0 0.00 0.00 0.00 87 1017.5
20260506023618 69 281 1.0 4.0 0.00 0.00 0.00 87 1017.4
20260506023043 68 251 1.0 7.0 0.00 0.00 0.00 87 1017.4
20260506022618 69 255 2.0 3.0 0.00 0.00 0.00 86 1017.5
20260506021618 69 231 2.0 4.0 0.00 0.00 0.00 84 1017.4
20260506021544 69 212 2.0 5.0 0.00 0.00 0.00 84 1017.3
20260506020618 71 322 2.0 5.0 0.00 0.00 0.00 84 1017.5
20260506020051 70 0 2.0 6.0 0.00 0.00 0.00 84 1017.6
20260506015618 71 292 3.0 5.0 0.00 0.00 0.00 85 1017.7
20260506014618 71 262 2.0 5.0 0.00 0.00 0.00 84 1017.7
20260506014541 71 290 1.0 6.0 0.00 0.00 0.00 84 1017.6
20260506013618 72 296 3.0 6.0 0.00 0.00 0.00 85 1017.5
20260506013051 71 186 2.0 6.0 0.00 0.00 0.00 82 1017.5
20260506012619 71 315 3.0 4.0 0.00 0.00 0.00 84 1017.5
20260506011617 71 310 3.0 4.0 0.00 0.00 0.00 85 1017.7
20260506011547 70 268 1.0 6.0 0.00 0.00 0.00 84 1017.7
20260506010618 71 265 2.0 4.0 0.00 0.00 0.00 83 1017.7
20260506010048 70 294 2.0 7.0 0.00 0.00 0.00 84 1017.6
20260506005619 70 237 2.0 3.0 0.00 0.00 0.00 84 1017.8
20260506004618 72 220 4.0 8.0 0.00 0.00 0.00 82 1017.8
20260506004542 71 214 3.0 11.0 0.00 0.00 0.00 82 1017.8
20260506003619 72 222 5.0 11.0 0.00 0.00 0.00 80 1018.0
20260506003041 72 216 2.0 9.0 0.00 0.00 0.00 83 1018.1
20260506002619 71 243 2.0 5.0 0.00 0.00 0.00 82 1018.3
20260506001618 71 275 1.0 3.0 0.00 0.00 0.00 83 1018.5
20260506001536 71 0 1.0 10.0 0.00 0.00 0.00 82 1018.4
20260506000619 73 212 6.0 10.0 0.00 0.00 0.00 80 1018.3
20260506000052 72 213 2.0 7.0 0.00 0.00 0.00 81 1018.4
20260505235639 71 235 3.0 6.0 0.00 0.00 0.00 84 1018.4
20260505234618 71 217 3.0 6.0 0.00 0.00 0.00 80 1018.6
20260505234543 71 209 2.0 9.0 0.00 0.00 0.00 79 1018.5
20260505233617 72 221 1.0 3.0 0.00 0.00 0.00 80 1018.7
20260505233046 71 288 2.0 6.0 0.00 0.00 0.00 79 1018.7
20260505232617 71 229 2.0 3.0 0.00 0.00 0.00 80 1018.8
20260505231617 70 205 3.0 7.0 0.00 0.00 0.00 81 1018.9
20260505231540 70 207 0.0 4.0 0.00 0.00 0.00 81 1018.8
20260505230617 69 348 2.0 4.0 0.00 0.00 0.00 84 1019.1
20260505230112 68 300 1.0 7.0 0.00 0.00 0.00 84 1019.1
20260505225638 69 297 1.0 2.0 0.00 0.00 0.00 85 1019.2
20260505224617 69 285 1.0 6.0 0.00 0.00 0.00 86 1019.3
20260505224543 69 302 1.0 6.0 0.00 0.00 0.00 86 1019.2
20260505223617 68 296 1.0 3.0 0.00 0.00 0.00 87 1019.5
20260505223044 67 0 0.0 3.0 0.00 0.00 0.00 87 1019.5
20260505222617 68 352 1.0 2.0 0.00 0.00 0.00 87 1019.6
20260505221638 67 295 1.0 3.0 0.00 0.00 0.00 90 1019.5
20260505221546 67 320 1.0 4.0 0.00 0.00 0.00 90 1019.5
20260505220638 67 237 1.0 4.0 0.00 0.00 0.00 91 1019.6
20260505220051 67 0 1.0 4.0 0.00 0.00 0.00 91 1019.6
20260505215638 67 226 1.0 3.0 0.00 0.00 0.00 92 1019.7
20260505214617 67 237 1.0 2.0 0.00 0.00 0.00 93 1019.9
20260505214543 66 0 1.0 4.0 0.00 0.00 0.00 92 1019.8
20260505213617 66 331 1.0 3.0 0.00 0.00 0.00 94 1019.8
20260505213043 65 295 0.0 4.0 0.00 0.00 0.00 95 1019.8
20260505212618 66 276 2.0 3.0 0.00 0.00 0.00 95 1019.8
20260505211617 66 0.0 0.0 0.00 0.00 0.00 95 1019.9
20260505211538 65 0 0.0 3.0 0.00 0.00 0.00 95 1019.8
20260505210617 66 339 1.0 3.0 0.00 0.00 0.00 95 1020.0
20260505210040 65 271 1.0 4.0 0.00 0.00 0.00 95 1019.9
20260505205617 65 313 0.0 1.0 0.00 0.00 0.00 95 1019.9
20260505204617 65 345 2.0 4.0 0.00 0.00 0.00 95 1019.8
20260505204539 65 350 1.0 5.0 0.00 0.00 0.00 95 1019.8
20260505203617 65 282 1.0 3.0 0.00 0.00 0.00 95 1019.9
20260505203044 65 207 0.0 4.0 0.00 0.00 0.00 94 1019.9
20260505202617 65 308 1.0 4.0 0.00 0.00 0.00 94 1019.9
20260505201617 66 350 2.0 4.0 0.00 0.00 0.00 93 1019.9
20260505201549 66 327 0.0 3.0 0.00 0.00 0.00 92 1019.9
20260505200617 67 301 2.0 3.0 0.00 0.00 0.00 92 1019.9
20260505200043 66 0 0.0 4.0 0.00 0.00 0.00 91 1019.9
20260505195617 67 324 2.0 4.0 0.00 0.00 0.00 91 1019.9
20260505194617 67 280 1.0 2.0 0.00 0.00 0.00 91 1019.9
20260505194545 67 294 1.0 4.0 0.00 0.00 0.00 90 1019.9
20260505193617 67 284 1.0 4.0 0.00 0.00 0.00 90 1019.8
20260505193052 67 317 0.0 6.0 0.00 0.00 0.00 90 1019.8
20260505192617 68 288 1.0 3.0 0.00 0.00 0.00 89 1019.9
20260505191617 69 313 1.0 3.0 0.00 0.00 0.00 88 1019.7
20260505191543 68 0 2.0 6.0 0.00 0.00 0.00 87 1019.6
20260505190617 68 313 2.0 4.0 0.00 0.00 0.00 90 1019.8
20260505190047 67 12 1.0 4.0 0.00 0.00 0.00 88 1019.6
20260505185617 67 301 1.0 2.0 0.00 0.00 0.00 88 1019.8
20260505184617 67 338 3.0 4.0 0.00 0.00 0.00 88 1019.7
20260505184543 67 336 1.0 5.0 0.00 0.00 0.00 88 1019.7
20260505183617 68 331 2.0 4.0 0.00 0.00 0.00 87 1019.5
20260505183043 67 340 0.0 4.0 0.00 0.00 0.00 87 1019.5
20260505182617 67 38 1.0 2.0 0.00 0.00 0.00 87 1019.5
20260505181617 68 324 1.0 3.0 0.00 0.00 0.00 86 1019.5
20260505181546 67 321 1.0 3.0 0.00 0.00 0.00 85 1019.5
20260505180617 67 258 0.0 1.0 0.00 0.00 0.00 86 1019.3
20260505180040 66 0 0.0 3.0 0.00 0.00 0.00 83 1019.1
20260505175619 67 224 1.0 2.0 0.00 0.00 0.00 86 1019.1
20260505174640 66 133 0.0 1.0 0.00 0.00 0.00 87 1019.1
20260505174547 65 0 0.0 2.0 0.00 0.00 0.00 86 1019.1
20260505173618 64 5 0.0 1.0 0.00 0.00 0.00 89 1019.1
20260505173043 63 0 0.0 2.0 0.00 0.00 0.00 89 1019.1
20260505172619 62 0.0 0.0 0.00 0.00 0.00 90 1019.1
20260505171619 60 122 0.0 1.0 0.00 0.00 0.00 90 1018.9
20260505171541 60 0 0.0 2.0 0.00 0.00 0.00 89 1018.8
20260505171218 60 0.0 1.0 0.00 0.00 0.00 90 1018.8
20260505170218 59 106 2.0 2.0 0.00 0.00 0.00 88 1018.7
20260505170041 59 100 1.0 4.0 0.00 0.00 0.00 88 1018.7
20260505165322 59 127 2.0 3.0 0.00 0.00 0.00 91 1018.5
20260505164549 59 105 1.0 3.0 0.00 0.00 0.00 91 1018.3
20260505164219 60 95 2.0 2.0 0.00 0.00 0.00 92 1018.5
20260505163219 60 89 1.0 2.0 0.00 0.00 0.00 92 1018.2
20260505163045 59 0 1.0 3.0 0.00 0.00 0.00 91 1018.3
20260505162218 59 118 2.0 3.0 0.00 0.00 0.00 91 1018.2
20260505161545 58 130 1.0 4.0 0.00 0.00 0.00 88 1018.2
20260505161218 58 147 0.0 2.0 0.00 0.00 0.00 88 1018.2
20260505160218 58 99 1.0 2.0 0.00 0.00 0.00 87 1018.1
20260505153240 58 100 2.0 3.0 0.00 0.00 0.00 86 1018.0
20260505153040 58 76 2.0 4.0 0.00 0.00 0.00 86 1018.0
20260505152219 58 139 2.0 3.0 0.00 0.00 0.00 87 1018.0
20260505151544 58 98 2.0 4.0 0.00 0.00 0.00 87 1017.9
20260505151218 58 98 3.0 3.0 0.00 0.00 0.00 87 1017.9
20260505150219 58 105 4.0 4.0 0.00 0.00 0.00 87 1017.9
20260505140218 58 104 2.0 3.0 0.00 0.00 0.00 88 1017.8
20260505130218 58 119 3.0 4.0 0.00 0.00 0.00 88 1018.0
20260505124551 58 123 1.0 3.0 0.00 0.00 0.00 88 1018.0
20260505124218 58 118 1.0 3.0 0.00 0.00 0.00 88 1018.1
20260505123239 58 91 2.0 3.0 0.00 0.00 0.00 89 1018.1
20260505123102 58 101 1.0 3.0 0.00 0.00 0.00 89 1018.0
20260505122218 58 102 2.0 3.0 0.00 0.00 0.00 89 1018.3
20260505121544 58 126 2.0 3.0 0.00 0.00 0.00 88 1018.3
20260505121218 59 94 1.0 3.0 0.00 0.00 0.00 88 1018.4
20260505120218 59 115 2.0 3.0 0.00 0.00 0.00 90 1018.4
20260505120043 59 139 2.0 6.0 0.00 0.00 0.00 90 1018.4
20260505115218 59 123 2.0 3.0 0.00 0.00 0.00 91 1018.4
20260505114541 58 116 2.0 6.0 0.00 0.00 0.00 90 1018.5
20260505114218 59 124 2.0 3.0 0.00 0.00 0.00 90 1018.7
20260505113218 59 107 2.0 3.0 0.00 0.00 0.00 89 1018.9
20260505113045 59 108 2.0 4.0 0.00 0.00 0.00 89 1018.8
20260505112218 59 105 2.0 3.0 0.00 0.00 0.00 90 1019.0
20260505111543 59 109 1.0 3.0 0.00 0.00 0.00 92 1019.1
20260505111218 60 103 2.0 3.0 0.00 0.00 0.00 93 1019.3
20260505110218 60 104 2.0 3.0 0.00 0.00 0.00 90 1019.2
20260505102218 60 102 2.0 4.0 0.00 0.00 0.00 87 1019.5
20260505101549 59 90 2.0 4.0 0.00 0.00 0.00 87 1019.6
20260505101218 60 104 2.0 3.0 0.00 0.00 0.00 88 1019.8
20260505100218 60 106 2.0 3.0 0.00 0.00 0.00 87 1019.9
20260505100045 59 106 1.0 3.0 0.00 0.00 0.00 87 1019.9
20260505095218 60 75 1.0 2.0 0.00 0.00 0.00 88 1020.1
20260505094542 59 107 1.0 3.0 0.00 0.00 0.00 88 1020.0
20260505094218 59 94 1.0 2.0 0.00 0.00 0.00 89 1020.1
20260505093219 60 92 2.0 3.0 0.00 0.00 0.00 89 1020.3
20260505093040 59 96 2.0 3.0 0.00 0.00 0.00 89 1020.2
20260505092240 60 131 1.0 2.0 0.00 0.00 0.00 88 1020.4
20260505091538 60 88 1.0 3.0 0.00 0.00 0.00 87 1020.4
20260505091218 60 98 2.0 3.0 0.00 0.00 0.00 88 1020.4
20260505090239 60 101 1.0 2.0 0.00 0.00 0.00 92 1020.3
20260505090044 60 107 1.0 3.0 0.00 0.00 0.00 92 1020.4
20260505085239 60 107 2.0 3.0 0.00 0.00 0.00 92 1020.4
20260505084552 59 114 1.0 4.0 0.00 0.00 0.00 90 1020.3
20260505084218 60 104 2.0 2.0 0.00 0.00 0.00 90 1020.5
20260505083218 60 136 2.0 3.0 0.00 0.00 0.00 89 1020.5
20260505083055 60 113 1.0 6.0 0.00 0.00 0.00 88 1020.5
20260505082218 61 135 1.0 2.0 0.00 0.00 0.00 90 1020.6
20260505081550 60 0 0.0 3.0 0.00 0.00 0.00 89 1020.5
20260505081218 61 128 0.0 2.0 0.00 0.00 0.00 90 1020.7
20260505080218 61 107 1.0 2.0 0.00 0.00 0.00 90 1020.5
20260505080048 61 107 1.0 3.0 0.00 0.00 0.00 89 1020.5
20260505075218 61 126 2.0 2.0 0.00 0.00 0.00 90 1020.6
20260505074541 60 95 1.0 3.0 0.00 0.00 0.00 91 1020.6
20260505074218 61 101 1.0 2.0 0.00 0.00 0.00 91 1020.7
20260505073218 60 107 2.0 2.0 0.00 0.00 0.00 92 1020.7
20260505073044 60 111 2.0 3.0 0.00 0.00 0.00 92 1020.6
20260505072239 60 102 2.0 3.0 0.00 0.00 0.00 92 1020.5
20260505071545 60 104 2.0 3.0 0.00 0.00 0.00 91 1020.4
20260505071218 60 105 2.0 3.0 0.00 0.00 0.00 91 1020.4
20260505070218 61 101 2.0 3.0 0.00 0.00 0.00 92 1020.5